Weather in Novy Benoy

Russia / Chechen Republic     43°18′57″N   46°08′07″E
temp.,
°C
wind,
m/s
gust,
m/s
humid.,
%
clouds,
%
prec.,
mm/h
press.,
hPa
HPBL,
m
12 may, wed
wed1200:00+6sw11911 0.0 101512
03:00+6sw11920 0.0 101511
06:00+9sw11820 0.0 101698
09:00+15nnw21600 0.0 1016693
12:00+18ne32550 0.0 10151066
15:00+20ene33536 0.0 10151195
18:00+17ene35700 0.0 1015231
21:00+12se22840 0.0 101529
13 may, thu
thu1300:00+11se128799 0.0 101413
03:00+10se11881 0.0 101411
06:00+12ene11830 0.0 101467
09:00+18ne22650 0.0 1014477
12:00+23ne33540 0.0 1014755
15:00+24ene43551 0.0 1013786
18:00+19ene24743 0.0 1014181
21:00+14s118939 0.0 101514
14 may, fri
fri1400:00+14ssw11905 0.0 101413
03:00+14se11895 0.0 101411
06:00+16nnw01805 0.0 101443
09:00+22ne22650 0.0 1013374
12:00+27ene34490 0.0 1012712
15:00+30e57370 0.0 1009790
18:00+24e26603 0.0 1010116
21:00+18s22653 0.0 101117
15 may, sat
sat1500:00+18ssw22620 0.0 101116
03:00+17s11600 0.0 101113
06:00+19sw11620 0.0 101225
09:00+24nne22520 0.0 1012435
12:00+27ne22480 0.0 1012824
15:00+30ne22340 0.0 10101087
18:00+23ene13540 0.0 101152
21:00+19ssw116683 0.0 101116
16 may, sun
sun1600:00+18s1170100 0.0 101116
03:00+17se117162 0.0 101012
06:00+19w11705 0.0 101046
09:00+24nne21560 0.0 1009445
12:00+30ene56320 0.0 10061161
15:00+29e912345 0.0 1004688
18:00+24e612460 0.0 1003291
21:00+20se23550 0.0 100451